Regional Weather Roundup
Issued by NWS

Home | Current Version | Previous Version | Text Only | Print | Product List | Glossary On
Versions: 1 2 3 4 5 6 7 8 9 10 11 12 13 14 15 16 17 18 19 20 21 22 23 24 25 26 27 28 29 30 31 32 33 34 35 36 37 38 39 40 41 42 43 44 45 46 47 48 49
000
ASUS43 KDMX 210807
RWRIA

WEATHER ROUNDUP FOR IOWA
NATIONAL WEATHER SERVICE DES MOINES IA
300 AM CDT TUE OCT 21 2014

NOTE: "FAIR" INDICATES FEW OR NO CLOUDS BELOW 12,000 FEET WITH NO
SIGNIFICANT WEATHER AND/OR OBSTRUCTIONS TO VISIBILITY.

* - THESE STATIONS ARE NOT NWS STATIONS...THUS NOT UNDER NWS
QUALITY CONTROL.  THEY ALSO DO NOT REPORT WEATHER SUCH
AS PRECIPITATION OR FOG.

IAZ001>003-012>014-020>022-031>034-043>046-210900-
   NORTHWEST IOWA

CITY           SKY/WX    TMP DP  RH WIND       PRES   REMARKS
CARROLL *      CLOUDY    36  36 100 W3        30.08S
CHEROKEE *     CLEAR     37  37 100 NE3       30.09R
DENISON *      CLEAR     37  37 100 CALM      30.07R
LE MARS *      CLEAR     36  36 100 CALM      30.09R
ORANGE CITY *  CLEAR     48  36  61 E5        30.08R
SHELDON *      CLEAR     36  34  93 CALM      30.07S
SIOUX CITY     CLEAR     38  36  92 CALM      30.08R
SPENCER        CLEAR     33  31  92 CALM      30.10R
STORM LAKE *   CLEAR     46  43  87 E5        30.09S
$$

IAZ055>058-069>071-079>083-090>094-210900-
   SOUTHWEST IOWA

CITY           SKY/WX    TMP DP  RH WIND       PRES   REMARKS
ATLANTIC *     PTCLDY    37  36  93 N5        30.09R WCI  34
AUDUBON *      CLEAR     37  30  75 CALM      30.09S
CLARINDA *     CLEAR     36  36 100 CALM      30.10S
COUNCIL BLFS * CLEAR     52  37  58 S3        30.07S
CRESTON *      CLEAR     46  39  76 N5        30.09R
HARLAN  *      CLEAR     37  37 100 CALM      30.12R
LAMONI         CLEAR     48  40  73 NW3       30.08R
RED OAK *      PTCLDY    37  36  93 CALM      30.09R
SHENANDOAH *   CLEAR     37  37 100 CALM      30.09S
$$

IAZ047>049-059>061-072>074-084-210900-
   CENTRAL IOWA

CITY           SKY/WX    TMP DP  RH WIND       PRES   REMARKS
AMES           CLEAR     42  38  85 NW3       30.08R
ANKENY *       CLEAR     41  41 100 CALM      30.08R
CHARITON *     CLEAR     45  41  87 W5        30.07R
DES MOINES     CLEAR     46  40  79 CALM      30.08R
GRINNELL*      CLEAR     45  39  81 NE3       30.08R
KNOXVILLE *    CLEAR     48  41  76 N5        30.06S
MARSHALLTOWN   CLEAR     38  36  92 N5        30.08R WCI  34
PELLA *        CLEAR     46  41  81 N3        30.08S
PERRY *          N/A     41  39  93 N3        30.09R
$$

IAZ004>006-015-016-023>025-035-036-210900-
   NORTH CENTRAL IOWA

CITY           SKY/WX    TMP DP  RH WIND       PRES   REMARKS
ALGONA *       CLEAR     41  37  87 NE5       30.10R
CLARION *      CLEAR     37  37 100 NE6       30.09S WCI  33
ESTHERVILLE    CLEAR     35  32  88 NE3       30.10R
FORT DODGE *   CLEAR     37  34  87 CALM      30.09S
MASON CITY     CLEAR     36  35  96 N3        30.12R
FOREST CITY *  CLEAR     39  39 100 CALM      30.10R
IOWA FALLS *     N/A     39  36  87 CALM      30.10R
$$

IAZ007>011-017>019-026>030-037>042-050>054-066-210900-
   NORTHEAST IOWA

CITY           SKY/WX    TMP DP  RH WIND       PRES   REMARKS
CEDAR RAPIDS   CLEAR     44  40  85 NE3       30.07R
CHARLES CITY * CLEAR     41  37  87 NE6       30.11R
CLINTON *      CLEAR     41  36  81 N8        30.10R
DECORAH *      PTCLDY    39  39 100 NW3       30.10R
DUBUQUE        CLEAR     40  37  89 N3        30.09R
MONTICELLO *   CLEAR     36  36 100 CALM      30.09R
OELWEIN *      CLEAR     41  39  93 NE5       30.10R
WATERLOO       CLEAR     37  35  92 CALM      30.09R
$$

IAZ064-065-067-068-078-210900-
   EAST CENTRAL IOWA

CITY           SKY/WX    TMP DP  RH WIND       PRES   REMARKS
DAVENPORT      CLEAR     40  37  89 NE5       30.08R
IOWA CITY      CLEAR     42  39  89 CALM      30.09R
MT. PLEASANT * CLEAR     41  39  93 CALM      30.07R
MUSCATINE *    CLEAR     43  41  93 NE3       30.08R
QUAD CITIES    CLEAR     39  37  92 CALM      30.07R FOG
$$

IAZ062-063-075>077-085>089-095>099-210900-
   SOUTHEAST IOWA

CITY           SKY/WX    TMP DP  RH WIND       PRES   REMARKS
BURLINGTON     CLEAR     48  41  76 NE3       30.06R
FAIRFIELD *    CLEAR     43  39  87 N7        30.07R
FORT MADISON * CLEAR     46  43  87 CALM      30.07R
KEOKUK *       CLEAR     45  43  93 N5        30.05R
OSKALOOSA *      N/A     43  39  87 N7        30.07S
CENTERVILLE *  CLEAR     39  39 100 NW5       30.08R
OTTUMWA        CLEAR     47  40  76 N7        30.07R
WASHINGTON *     N/A     45  43  93 E6        30.07R
$$

ABBREVIATIONS USED IN REMARKS
   TC - TEMPERATURES IN CELSIUS
  WCI - WIND CHILL INDEX
   HX - HEAT INDEX
  VSB - VISIBILITY
$$



USA.gov is the U.S. government's official web portal to all federal, state and local government web resources and services.